When you browse on this site, cookies collect data to enhance your experience and personalize the content and advertising you see.
Visit our Privacy Policy to learn more. By continuing to use the site, you agree to this use of cookies and data.
  • In Latvia
  • List of Countries
  • For 7 days
  • Water Temperature
  • Weather Map
  • Weather Widgets
  • user-avatar
    Login

    Hourly Weather Lukov Kordon

    Today, 21 October, Monday

    Time Temperature Precipitation Wind Pressure Humidity
    00:00 +8°C° 0 mm 2 mps 770 mmHg 81%
    01:00 +8°C° 0 mm 2 mps 770 mmHg 81%
    02:00 +8°C° 0 mm 2 mps 770 mmHg 81%
    03:00 +7°C° 0 mm 2 mps 770 mmHg 83%
    04:00 +7°C° 0 mm 2 mps 770 mmHg 82%
    05:00 +7°C° 0 mm 2 mps 770 mmHg 81%
    06:00 +7°C° 0 mm 2 mps 770 mmHg 81%
    07:00 +8°C° 0 mm 2 mps 770 mmHg 75%
    08:00 +9°C° 0 mm 2 mps 770 mmHg 69%
    09:00 +12°C° 0 mm 2 mps 770 mmHg 62%
    10:00 +12°C° 0 mm 3 mps 770 mmHg 59%
    11:00 +13°C° 0 mm 3 mps 770 mmHg 56%
    12:00 +14°C° 0 mm 3 mps 770 mmHg 53%
    13:00 +14°C° 0 mm 3 mps 770 mmHg 52%
    14:00 +14°C° 0 mm 3 mps 769 mmHg 51%
    15:00 +16°C° 0 mm 3 mps 769 mmHg 50%
    16:00 +14°C° 0 mm 3 mps 769 mmHg 53%
    17:00 +13°C° 0 mm 3 mps 769 mmHg 57%
    18:00 +12°C° 0 mm 3 mps 768 mmHg 60%
    19:00 +11°C° 0 mm 3 mps 768 mmHg 62%
    20:00 +11°C° 0 mm 3 mps 768 mmHg 63%
    21:00 +10°C° 0 mm 3 mps 768 mmHg 65%
    22:00 +10°C° 0 mm 3 mps 767 mmHg 66%
    23:00 +10°C° 0 mm 4 mps 767 mmHg 66%

    Tomorrow, 22 October, Tuesday

    Time Temperature Precipitation Wind Pressure Humidity
    00:00 +8°C° 0 mm 4 mps 767 mmHg 67%
    01:00 +8°C° 0 mm 4 mps 767 mmHg 68%
    02:00 +8°C° 0 mm 4 mps 767 mmHg 68%
    03:00 +8°C° 0 mm 4 mps 766 mmHg 69%
    04:00 +8°C° 0 mm 4 mps 766 mmHg 69%
    05:00 +8°C° 0 mm 4 mps 766 mmHg 70%
    06:00 +8°C° 0 mm 4 mps 765 mmHg 70%
    07:00 +10°C° 0 mm 4 mps 765 mmHg 66%
    08:00 +10°C° 0 mm 5 mps 765 mmHg 62%
    09:00 +11°C° 0 mm 6 mps 765 mmHg 58%
    10:00 +13°C° 0 mm 6 mps 765 mmHg 56%
    11:00 +14°C° 0 mm 6 mps 765 mmHg 53%
    12:00 +15°C° 0 mm 6 mps 765 mmHg 51%
    13:00 +15°C° 0 mm 6 mps 764 mmHg 51%
    14:00 +16°C° 0 mm 5 mps 764 mmHg 51%
    15:00 +16°C° 0 mm 5 mps 764 mmHg 51%
    16:00 +15°C° 0 mm 4 mps 764 mmHg 54%
    17:00 +14°C° 0 mm 4 mps 764 mmHg 57%
    18:00 +14°C° 0 mm 3 mps 764 mmHg 61%
    19:00 +13°C° 0 mm 3 mps 764 mmHg 65%
    20:00 +14°C° 0 mm 2 mps 764 mmHg 69%
    21:00 +13°C° 0 mm 2 mps 764 mmHg 74%
    22:00 +13°C° 0 mm 2 mps 764 mmHg 79%
    23:00 +12°C° 0 mm 2 mps 764 mmHg 84%

    Day after tomorrow, 23 October, Wednesday

    Time Temperature Precipitation Wind Pressure Humidity
    00:00 +12°C° 0 mm 2 mps 764 mmHg 89%
    01:00 +10°C° 0 mm 2 mps 764 mmHg 91%
    02:00 +10°C° 0 mm 2 mps 764 mmHg 93%
    03:00 +9°C° 0 mm 2 mps 764 mmHg 95%
    04:00 +9°C° 0 mm 2 mps 764 mmHg 94%
    05:00 +9°C° 0 mm 2 mps 764 mmHg 94%
    06:00 +8°C° 0 mm 2 mps 764 mmHg 94%
    07:00 +9°C° 0 mm 2 mps 764 mmHg 88%
    08:00 +11°C° 0 mm 1 mps 764 mmHg 82%
    09:00 +13°C° 0 mm 1 mps 764 mmHg 76%
    10:00 +14°C° 0 mm 1 mps 764 mmHg 70%
    11:00 +15°C° 0 mm 2 mps 764 mmHg 64%
    12:00 +16°C° 0 mm 2 mps 764 mmHg 58%
    13:00 +16°C° 0 mm 2 mps 764 mmHg 55%
    14:00 +16°C° 0 mm 2 mps 764 mmHg 51%
    15:00 +17°C° 0 mm 2 mps 764 mmHg 48%
    16:00 +16°C° 0 mm 2 mps 764 mmHg 53%
    17:00 +14°C° 0 mm 2 mps 763 mmHg 59%
    18:00 +13°C° 0 mm 2 mps 763 mmHg 64%
    19:00 +13°C° 0 mm 2 mps 763 mmHg 68%
    20:00 +12°C° 0 mm 3 mps 763 mmHg 71%
    21:00 +12°C° 0 mm 3 mps 763 mmHg 75%
    22:00 +11°C° 0 mm 3 mps 763 mmHg 77%
    23:00 +11°C° 0 mm 3 mps 763 mmHg 80%

    24 October, Thursday

    Time Temperature Precipitation Wind Pressure Humidity
    00:00 +11°C° 0 mm 3 mps 763 mmHg 82%
    01:00 +11°C° 0 mm 3 mps 763 mmHg 84%
    02:00 +11°C° 0 mm 3 mps 763 mmHg 85%
    03:00 +11°C° 0 mm 3 mps 763 mmHg 87%
    04:00 +10°C° 0 mm 3 mps 763 mmHg 87%
    05:00 +10°C° 0 mm 3 mps 763 mmHg 87%
    06:00 +10°C° 0 mm 3 mps 763 mmHg 87%
    07:00 +11°C° 0 mm 3 mps 763 mmHg 81%
    08:00 +13°C° 0 mm 3 mps 764 mmHg 74%
    09:00 +14°C° 0 mm 3 mps 764 mmHg 68%
    10:00 +17°C° 0 mm 4 mps 764 mmHg 62%
    11:00 +18°C° 0 mm 4 mps 763 mmHg 55%
    12:00 +20°C° 0 mm 4 mps 763 mmHg 49%
    13:00 +20°C° 0 mm 4 mps 763 mmHg 48%
    14:00 +20°C° 0 mm 4 mps 763 mmHg 47%
    15:00 +20°C° 0 mm 4 mps 763 mmHg 47%
    16:00 +19°C° 0 mm 3 mps 763 mmHg 51%
    17:00 +18°C° 0 mm 3 mps 763 mmHg 56%
    18:00 +16°C° 0 mm 3 mps 763 mmHg 61%
    19:00 +16°C° 0 mm 3 mps 763 mmHg 63%
    20:00 +16°C° 0 mm 3 mps 763 mmHg 65%
    21:00 +14°C° 0 mm 3 mps 763 mmHg 66%
    22:00 +14°C° 0 mm 3 mps 763 mmHg 67%
    23:00 +13°C° 0 mm 3 mps 763 mmHg 68%

    25 October, Friday

    Time Temperature Precipitation Wind Pressure Humidity
    00:00 +13°C° 0 mm 3 mps 763 mmHg 69%
    01:00 +13°C° 0 mm 3 mps 763 mmHg 70%
    02:00 +12°C° 0 mm 3 mps 763 mmHg 71%
    03:00 +12°C° 0 mm 3 mps 763 mmHg 71%
    04:00 +12°C° 0 mm 3 mps 763 mmHg 70%
    05:00 +12°C° 0 mm 3 mps 763 mmHg 69%
    06:00 +12°C° 0 mm 4 mps 762 mmHg 68%
    07:00 +13°C° 0 mm 4 mps 763 mmHg 65%
    08:00 +13°C° 0 mm 4 mps 763 mmHg 61%
    09:00 +14°C° 0 mm 4 mps 763 mmHg 58%
    10:00 +17°C° 0 mm 4 mps 763 mmHg 55%
    11:00 +17°C° 0 mm 5 mps 763 mmHg 52%
    12:00 +19°C° 0 mm 5 mps 763 mmHg 49%
    13:00 +19°C° 0 mm 4 mps 763 mmHg 49%
    14:00 +19°C° 0 mm 4 mps 763 mmHg 50%
    15:00 +20°C° 0 mm 4 mps 763 mmHg 50%
    16:00 +19°C° 0 mm 3 mps 763 mmHg 56%
    17:00 +17°C° 0 mm 3 mps 763 mmHg 61%
    18:00 +16°C° 0 mm 2 mps 763 mmHg 67%
    19:00 +15°C° 0 mm 2 mps 764 mmHg 72%
    20:00 +15°C° 0 mm 2 mps 764 mmHg 78%
    21:00 +14°C° 0 mm 2 mps 764 mmHg 83%
    22:00 +13°C° 0 mm 2 mps 764 mmHg 85%
    23:00 +12°C° 0 mm 2 mps 764 mmHg 87%

    26 October, Saturday

    Time Temperature Precipitation Wind Pressure Humidity
    00:00 +12°C° 0 mm 1 mps 765 mmHg 88%
    01:00 +11°C° 0 mm 1 mps 765 mmHg 89%
    02:00 +11°C° 0 mm 1 mps 765 mmHg 91%
    03:00 +9°C° 0 mm 0 mps 765 mmHg 92%
    04:00 +9°C° 0 mm 0 mps 765 mmHg 92%
    05:00 +9°C° 0 mm 0 mps 765 mmHg 92%
    06:00 +8°C° 0 mm 0 mps 765 mmHg 93%
    07:00 +10°C° 0 mm 0 mps 765 mmHg 87%
    08:00 +12°C° 0 mm 1 mps 765 mmHg 80%
    09:00 +14°C° 0 mm 1 mps 765 mmHg 74%
    10:00 +15°C° 0 mm 2 mps 765 mmHg 69%
    11:00 +17°C° 0 mm 3 mps 765 mmHg 63%
    12:00 +18°C° 0 mm 3 mps 765 mmHg 58%
    13:00 +18°C° 0 mm 4 mps 764 mmHg 58%
    14:00 +18°C° 0 mm 4 mps 764 mmHg 58%
    15:00 +19°C° 0 mm 5 mps 763 mmHg 58%
    16:00 +17°C° 0 mm 4 mps 763 mmHg 62%
    17:00 +15°C° 0 mm 4 mps 763 mmHg 67%
    18:00 +14°C° 0 mm 3 mps 763 mmHg 71%
    19:00 +14°C° 0 mm 4 mps 763 mmHg 73%
    20:00 +13°C° 0 mm 4 mps 763 mmHg 75%
    21:00 +13°C° 0 mm 4 mps 762 mmHg 77%
    22:00 +12°C° 0 mm 4 mps 762 mmHg 78%
    23:00 +12°C° 0 mm 4 mps 762 mmHg 79%

    27 October, Sunday

    Time Temperature Precipitation Wind Pressure Humidity
    00:00 +12°C° 0 mm 4 mps 762 mmHg 80%
    01:00 +11°C° 0 mm 4 mps 762 mmHg 81%
    02:00 +11°C° 0 mm 4 mps 762 mmHg 82%
    03:00 +11°C° 0 mm 4 mps 762 mmHg 84%
    04:00 +10°C° 0 mm 4 mps 762 mmHg 86%
    05:00 +10°C° 0 mm 3 mps 762 mmHg 88%
    06:00 +9°C° 0 mm 3 mps 762 mmHg 90%
    07:00 +10°C° 0 mm 3 mps 762 mmHg 86%
    08:00 +11°C° 0 mm 3 mps 763 mmHg 82%
    09:00 +12°C° 0 mm 3 mps 763 mmHg 77%
    10:00 +13°C° 0 mm 3 mps 763 mmHg 72%
    11:00 +14°C° 0 mm 3 mps 763 mmHg 67%
    12:00 +16°C° 0 mm 3 mps 763 mmHg 62%
    13:00 +17°C° 0 mm 3 mps 763 mmHg 62%
    14:00 +17°C° 0 mm 3 mps 762 mmHg 61%
    15:00 +17°C° 0 mm 3 mps 762 mmHg 60%
    16:00 +16°C° 0 mm 3 mps 762 mmHg 64%
    17:00 +14°C° 0 mm 3 mps 762 mmHg 69%
    18:00 +13°C° 0 mm 3 mps 761 mmHg 73%
    19:00 +13°C° 0 mm 3 mps 761 mmHg 73%
    20:00 +12°C° 0 mm 3 mps 761 mmHg 74%
    21:00 +12°C° 0 mm 3 mps 761 mmHg 74%
    22:00 +12°C° 0 mm 3 mps 761 mmHg 74%
    23:00 +12°C° 0 mm 4 mps 761 mmHg 74%
    Show more